FO-99
1 43937U 19003F   22013.82663258  .00004281  00000-0  16207-3 0  9991
2 43937  97.1523  53.4343 0021888 350.2700   9.8113 15.27223549166354
MYSat 1
1 44045U 18092F   22013.57735986  .00012675  00000-0  28307-3 0  9999
2 44045  51.6358 118.3257 0009161 252.3018 107.6969 15.43863196163871
AstroCast 0.2
1 44083U 19018F   22013.79873297  .00004775  00000-0  19994-3 0  9996
2 44083  97.3474  75.7660 0011115 319.3276  40.7130 15.23966329154917
AISTechSat 3
1 44103U 19018AB  22013.77466324  .00002987  00000-0  12194-3 0  9994
2 44103  97.3337  76.1847 0011709 329.4795 125.9818 15.25120784155051
AISat 1
1 44104U 19018AC  22013.78513219  .00002734  00000-0  84147-4 0  9990
2 44104  97.4095  96.5422 0054236 327.5459  32.2451 15.33130237155884
Prox-1
1 44339U 19036A   22013.61739337  .00001610  00000-0  32471-3 0  9997
2 44339  24.0007  90.1183 0010987 324.3789  35.5969 14.54074978135781
Oculus-ASR
1 44348U 19036K   22013.67580704  .00019177  00000-0  23247-3 0  9993
2 44348  28.5068 166.9398 0297548  35.6798 326.3303 15.20777730140845
Armadillo
1 44352U 19036P   22013.62047049  .00039505 -54354-5  38981-3 0  9998
2 44352  28.5249 124.8034 0246449 101.5855 261.2514 15.34296483141211
NO-104
1 44354U 19036R   22012.48585175  .00019710  00000-0  23110-3 0  9997
2 44354  28.5239 164.7845 0291430  36.5554 325.4563 15.22670279140760
NO-103
1 44355U 19036S   22013.44568014  .00096237 -42507-5  69685-3 0  9998
2 44355  28.5250  66.8714 0182429 195.3539 164.1474 15.52737496141820
Move-IIb
1 44398U 19038N   22013.90878504  .00004206  00000-0  22684-3 0  9995
2 44398  97.6102 342.4879 0021924 306.5884  53.3331 15.15127671139618
SONATE
1 44400U 19038Q   22013.85074678  .00001529  00000-0  89485-4 0  9991
2 44400  97.6190 342.0551 0023361 309.0843  50.8321 15.13186219139546
BeeSat 9
1 44412U 19038AC  22013.88074875  .00002923  00000-0  16247-3 0  9990
2 44412  97.6163 342.5599 0020308 312.3671  47.5840 15.14346337139280
JAISAT-1
1 44419U 19038F   22013.91532589  .00003407  00000-0  18628-3 0  9995
2 44419  97.6167 343.3091 0019141 309.8355  50.1191 15.14830647139641
LightSail-2
1 44420U 19036AC  22013.78472673  .00016400  00000-0  30081-2 0  9990
2 44420  24.0040  52.6016 0018452  34.2309 325.9372 14.64070633134291
Taurus 1
1 44530U 19059C   22013.77456547  .00000825  00000-0  24207-3 0  9996
2 44530  98.5488 110.9252 0013462 221.8701 138.1466 14.46420689123488
Duchifat 3
1 44854U 19089C   22013.52193768  .00001196  00000-0  10071-3 0  9990
2 44854  36.9664 297.9733 0007503  31.2193 328.9075 14.99965568114658
OPS-SAT
1 44878U 19092F   22013.75094555  .00003253  00000-0  16524-3 0  9994
2 44878  97.4743 199.3616 0013887 153.5381 206.6564 15.17520904114712
TO-108
1 44881U 19093C   22013.78912436  .00000147  00000-0  25478-4 0  9997
2 44881  97.9080  95.1459 0014553 334.8601  25.1906 14.81539801111877
FloripaSat 1
1 44885U 19093G   22013.74740973  .00000552  00000-0  75209-4 0  9999
2 44885  97.9108  96.0388 0014048 341.8049  18.2671 14.82558004111921
RS-44
1 44909U 19096E   22013.93725664  .00000011  00000-0  38646-5 0  9995
2 44909  82.5232 332.9491 0216816 321.2762  37.2963 12.79712109 95742
Phoenix
1 45258U 98067RB  22013.63872351  .00029221  00000-0  29889-3 0  9992
2 45258  51.6374 352.1695 0004065 344.3159  15.7709 15.64758322108019
QARMAN
1 45263U 98067RG  22013.89868666  .00233610  31173-4  74646-3 0  9999
2 45263  51.6298 328.2303 0004516  91.0255 269.1268 15.90621254108415
Quetzal 1
1 45598U 98067RL  22013.61770404  .00116354  00000-0  59814-3 0  9998
2 45598  51.6356 339.9927 0004764  89.2559 270.8989 15.80342277 97503
BY70-2
1 45857U 20042B   22013.80609410  .00001851  00000-0  26439-3 0  9995
2 45857  97.9695  92.3055 0009717 251.0008 109.0156 14.77859975 82600
UPMSat 2
1 46276U 20061E   22013.81295595  .00001375  00000-0  72965-4 0  9995
2 46276  97.4118  88.1648 0001973  44.3095 315.8296 15.16988281 75428
AmicalSat
1 46287U 20061R   22013.73458925  .00001985  00000-0  12216-3 0  9995
2 46287  97.4669  87.2144 0004237  92.5566 267.6149 15.11142601 75093
SALSAT
1 46495U 20068K   22013.88913919  .00000723  00000-0  57026-4 0  9996
2 46495  97.7139 315.3872 0018770  81.5884 278.7469 15.03780379 70959
BY70-3
1 46839U 20079N   22013.86024350  .00007490  00000-0  21518-3 0  9994
2 46839  97.2199  88.5762 0007221 158.0094 313.0466 15.36087418 66473
SPOC
1 46921U 98067RR  22013.47767906  .00026642  00000-0  30377-3 0  9999
2 46921  51.6397   3.9433 0002184 100.4560 259.6680 15.62035756 67591
Bobcat-1
1 46922U 98067RS  22013.65191326  .00054598  00000-0  45842-3 0  9991
2 46922  51.6405 356.1399 0002803  93.1611 266.9706 15.69357235 67674
Neutron-1
1 46923U 98067RT  22013.51035205  .00027709  00000-0  31687-3 0  9996
2 46923  51.6402   4.1645 0001876 107.2692 252.8507 15.61936006 67620
CAPE 3
1 47309U 21002A   22013.89856097  .00002595  00000-0  12329-3 0  9999
2 47309  60.6838 224.5662 0031870 162.0371 198.1849 15.21987370 54903
AO-109
1 47311U 21002C   22013.88923424  .00002286  00000-0  10782-3 0  9998
2 47311  60.6849 222.8672 0028862 156.0896 204.1539 15.22781143 54907
MiTEE 1
1 47314U 21002F   22013.90148639  .00005792  00000-0  23700-3 0  9990
2 47314  60.6832 219.4170 0031190 146.9864 213.3180 15.25185622 54983
ExoCube 2
1 47319U 21002L   22013.91206360  .00002993  00000-0  13897-3 0  9998
2 47319  60.6838 223.4992 0029187 158.4186 201.8139 15.22392857 54869
UVSQ-SAT
1 47438U 21006AB  22013.69592155  .00002202  00000-0  12496-3 0  9996
2 47438  97.4619  75.9171 0014094  91.9796 268.3050 15.13906693 53851
YUSAT 1
1 47439U 21006AC  22013.82437025  .00002284  00000-0  12907-3 0  9993
2 47439  97.4624  76.0659 0013912  91.8516 268.4309 15.14024317 53873
SOMP 2b
1 47445U 21006AJ  22013.73491370  .00002003  00000-0  11464-3 0  9999
2 47445  97.4591  75.7355 0013741  95.2838 264.9962 15.13700020 53852
IDEASSat
1 47458U 21006AX  22013.76692616  .00002029  00000-0  11661-3 0  9999
2 47458  97.4678  76.1179 0012820  93.4524 266.8174 15.13560851 53852
RSP-01
1 47925U 98067SB  22013.29166976  .00028789  00000-0  35703-3 0  9996
2 47925  51.6413  13.1946 0002947  75.7630 284.3690 15.59792954 47428
TAUSAT-1
1 47926U 98067SC  22013.71293597  .00041011  00000-0  44773-3 0  9994
2 47926  51.6401   8.4869 0003912  77.9041 282.2392 15.62926424 47511
Tsuru
1 47927U 98067SD  22013.42542321  .00024930  00000-0  32262-3 0  9996
2 47927  51.6404  13.3358 0002918  75.7805 284.3512 15.58749122 47433
STARS-EC
1 47928U 98067SE  22013.70855915  .00047834  00000-0  50963-3 0  9990
2 47928  51.6398   9.2093 0003448 138.5283 221.5974 15.63483464 47494
Maya-2
1 47929U 98067SF  22013.29283178  .00025314  00000-0  32758-3 0  9992
2 47929  51.6410  13.9477 0002990  73.6670 286.4651 15.58740838 47372
OPUSAT-II
1 47930U 98067SG  22013.86820093  .00050810  00000-0  52204-3 0  9997
2 47930  51.6391   7.2880 0003702  71.6730 288.4668 15.64379392 47553
GuaraniSat-1
1 47931U 98067SH  22013.28821638  .00026005  00000-0  33554-3 0  9996
2 47931  51.6418  13.9243 0003039  73.7010 286.4317 15.58801724 47414
CubeSX-Sirius-HSE
1 47951U 21022V   22013.89679742  .00000863  00000-0  62856-4 0  9991
2 47951  97.5442 276.6729 0021103 318.7302 107.2895 15.06207887 44722
CubeSX-HSE
1 47952U 21022W   22013.88802117  .00001120  00000-0  80206-4 0  9991
2 47952  97.5436 276.6741 0021009 317.5050 102.7877 15.06246854 44729
KSU-Cubesat
1 47954U 21022Y   22013.72610149  .00002065  00000-0  14387-3 0  9993
2 47954  97.5456 276.5694 0020310 317.6076  42.3581 15.06380427 44425
GRBAlpha
1 47959U 21022AD  22013.88794020  .00001131  00000-0  80948-4 0  9996
2 47959  97.5431 276.6950 0021043 318.4229 102.5123 15.06256028 43544
Orbicraft-Zorkiy
1 47960U 21022AE  22013.81253934  .00002230  00000-0  15513-3 0  9991
2 47960  97.5462 276.6998 0020598 318.0067 130.3020 15.06349783 44224
STECCO
1 47962U 21022AG  22013.79479315  .00002665  00000-0  17854-3 0  9995
2 47962  97.5432 277.0460 0015375 314.7471 132.0009 15.07651758 43551
DO-111
1 47963U 21022AH  22013.71277986  .00005280  00000-0  33669-3 0  9996
2 47963  97.5460 277.3260 0017555 310.5152  49.4546 15.09014233 43589
MO-110
1 47964U 21022AJ  22013.72495043  .00002901  00000-0  19225-3 0  9993
2 47964  97.5448 277.1306 0018208 310.5177  49.4464 15.07953444 43558
FEES
1 48082U 21022AL  22013.66833661  .00004073  00000-0  26997-3 0  9996
2 48082  97.5456 276.9418 0014552 308.6374  51.3551 15.07762372 43248
RamSat
1 48850U 98067SL  22013.55833209  .00015837  00000-0  24042-3 0  9997
2 48850  51.6417  17.9381 0002941 184.7736 175.3228 15.54759548 33133
MO-112
1 48868U 98067SP  22013.60303412  .00048848  00000-0  56790-3 0  9993
2 48868  51.6394  14.4830 0001362 110.8687 249.2452 15.61229968 31963
TUBIN
1 48900U 21059X   22013.90984707  .00001421  00000-0  84947-4 0  9994
2 48900  97.5324 144.8426 0008715 278.8483 195.5127 15.12665480 30543
IT-SPINS
1 49017U 21013G   22013.41099588  .00003621  00000-0  16228-3 0  9994
2 49017  51.5916  59.9692 0006897 229.6908 130.3467 15.23748108 30125
LEDSAT
1 49069U 21073D   22013.77931977  .00001083  00000-0  74831-4 0  9998
2 49069  97.5433  89.7480 0029412 103.3454 257.1056 15.07497327 22527
CUTE
1 49263U 21088D   22013.81525733  .00002038  00000-0  16012-3 0  9991
2 49263  97.6047  84.8212 0019120 232.0692 127.8805 15.01866544 16201
Binar-1
1 49272U 98067SR  22013.27039924  .00016648  00000-0  26739-3 0  9993
2 49272  51.6420  22.0008 0005657  90.3199 269.8440 15.53146859 15444
